Time,TemperatureF,DewpointF,PressureIn,WindDirection,WindDirectionDegrees,WindSpeedMPH,WindSpeedGustMPH,Humidity,HourlyPrecipIn,Conditions,Clouds,dailyrainin,SoftwareType,DateUTC
2013-09-03 00:01:00,79.7,75.2,29.87,NNE,25,0.0,0.0,86,0.00,,---,0.46,VWS V14.01,2013-09-03 05:01:00,
2013-09-03 00:06:00,79.7,75.2,29.87,NE,37,0.0,0.0,86,0.00,,---,0.00,VWS V14.01,2013-09-03 05:06:00,
2013-09-03 00:11:00,79.7,74.8,29.87,NNE,25,0.0,0.0,85,0.00,,---,0.00,VWS V14.01,2013-09-03 05:11:00,
2013-09-03 00:16:00,79.6,74.3,29.87,NNE,19,0.0,0.0,84,0.00,,---,0.00,VWS V14.01,2013-09-03 05:16:00,
2013-09-03 00:21:00,79.5,74.2,29.87,NNE,22,0.0,0.0,84,0.00,,---,0.00,VWS V14.01,2013-09-03 05:21:00,
2013-09-03 00:26:00,79.5,74.2,29.87,NNE,25,0.0,0.0,84,0.00,,---,0.00,VWS V14.01,2013-09-03 05:26:00,
2013-09-03 00:31:00,79.4,74.2,29.87,NNE,24,0.0,0.0,84,0.00,,---,0.00,VWS V14.01,2013-09-03 05:31:00,
2013-09-03 00:36:00,79.3,74.8,29.87,NNE,29,0.0,0.0,86,0.00,,---,0.00,VWS V14.01,2013-09-03 05:36:00,
2013-09-03 00:41:00,79.2,74.3,29.87,NNE,31,0.0,0.0,85,0.00,,---,0.00,VWS V14.01,2013-09-03 05:41:00,
2013-09-03 00:46:00,79.3,74.1,29.87,NNE,31,0.0,0.0,84,0.00,,---,0.00,VWS V14.01,2013-09-03 05:46:00,
2013-09-03 00:51:00,79.2,73.9,29.87,NNE,32,0.0,0.0,84,0.00,,---,0.00,VWS V14.01,2013-09-03 05:51:00,
2013-09-03 00:56:00,79.2,74.3,29.87,NNE,32,0.0,0.0,85,0.00,,---,0.00,VWS V14.01,2013-09-03 05:56:00,
2013-09-03 01:01:00,79.1,74.6,29.87,NNE,31,0.0,0.0,86,0.00,,---,0.00,VWS V14.01,2013-09-03 06:01:00,
2013-09-03 01:06:00,78.8,74.3,29.87,NE,36,0.0,0.0,86,0.00,,---,0.00,VWS V14.01,2013-09-03 06:06:00,
2013-09-03 01:11:00,78.7,74.5,29.87,NNE,31,0.0,0.0,87,0.00,,---,0.00,VWS V14.01,2013-09-03 06:11:00,
2013-09-03 01:16:00,78.6,74.4,29.87,NNE,31,0.0,0.0,87,0.00,,---,0.00,VWS V14.01,2013-09-03 06:16:00,
2013-09-03 01:21:00,78.6,74.8,29.87,NNE,32,0.0,0.0,88,0.00,,---,0.00,VWS V14.01,2013-09-03 06:21:00,
2013-09-03 01:26:00,78.5,74.7,29.87,NNE,31,0.0,0.0,88,0.00,,---,0.00,VWS V14.01,2013-09-03 06:26:00,
2013-09-03 01:31:00,78.5,75.0,29.87,NNE,31,0.0,0.0,89,0.00,,---,0.00,VWS V14.01,2013-09-03 06:31:00,
2013-09-03 01:36:00,78.5,75.3,29.87,NNE,31,0.0,0.0,90,0.00,,---,0.00,VWS V14.01,2013-09-03 06:36:00,
2013-09-03 01:41:00,78.4,75.2,29.87,NNE,31,0.0,0.0,90,0.00,,---,0.00,VWS V14.01,2013-09-03 06:41:00,
2013-09-03 01:46:00,78.3,75.1,29.87,NNE,32,0.0,0.0,90,0.00,,---,0.00,VWS V14.01,2013-09-03 06:46:00,
2013-09-03 01:51:00,78.4,75.6,29.87,NNE,31,0.0,0.0,91,0.00,,---,0.00,VWS V14.01,2013-09-03 06:51:00,
2013-09-03 01:56:00,78.5,75.7,29.87,NNE,32,0.0,0.0,91,0.00,,---,0.00,VWS V14.01,2013-09-03 06:56:00,
2013-09-03 02:01:00,78.4,75.6,29.87,NNE,32,0.0,0.0,91,0.00,,---,0.00,VWS V14.01,2013-09-03 07:01:00,
2013-09-03 02:06:00,78.3,75.8,29.88,NNE,31,0.0,0.0,92,0.00,,---,0.00,VWS V14.01,2013-09-03 07:06:00,
2013-09-03 02:11:00,78.3,75.8,29.87,NNE,31,0.0,0.0,92,0.00,,---,0.00,VWS V14.01,2013-09-03 07:11:00,
2013-09-03 02:16:00,78.3,75.8,29.88,NNE,31,0.0,1.0,92,0.00,,---,0.00,VWS V14.01,2013-09-03 07:16:00,
2013-09-03 02:21:00,78.3,75.8,29.88,NNE,31,0.0,1.0,92,0.00,,---,0.00,VWS V14.01,2013-09-03 07:21:00,
2013-09-03 02:26:00,78.1,75.6,29.88,NNE,31,0.0,1.0,92,0.00,,---,0.00,VWS V14.01,2013-09-03 07:26:00,
2013-09-03 02:31:00,77.8,75.3,29.88,NNE,20,0.0,1.0,92,0.00,,---,0.00,VWS V14.01,2013-09-03 07:31:00,
2013-09-03 02:36:00,77.8,75.6,29.88,NNE,20,0.0,0.0,93,0.00,,---,0.00,VWS V14.01,2013-09-03 07:36:00,
2013-09-03 02:41:00,77.8,75.6,29.87,NNE,20,0.0,0.0,93,0.00,,---,0.00,VWS V14.01,2013-09-03 07:41:00,
2013-09-03 02:46:00,77.7,75.5,29.87,NNE,20,0.0,0.0,93,0.00,,---,0.00,VWS V14.01,2013-09-03 07:46:00,
2013-09-03 02:51:00,77.6,75.4,29.87,NNE,20,0.0,0.0,93,0.00,,---,0.00,VWS V14.01,2013-09-03 07:51:00,
2013-09-03 02:56:00,77.5,75.3,29.87,NNE,20,0.0,0.0,93,0.00,,---,0.00,VWS V14.01,2013-09-03 07:56:00,
2013-09-03 03:01:00,77.5,75.6,29.87,NNE,20,0.0,0.0,94,0.00,,---,0.00,VWS V14.01,2013-09-03 08:01:00,
2013-09-03 03:06:00,77.7,75.8,29.87,NNE,20,0.0,0.0,94,0.00,,---,0.00,VWS V14.01,2013-09-03 08:06:00,
2013-09-03 03:11:00,77.8,75.9,29.87,NNE,20,0.0,0.0,94,0.00,,---,0.00,VWS V14.01,2013-09-03 08:11:00,
2013-09-03 03:16:00,77.7,75.8,29.87,NNE,20,0.0,0.0,94,0.00,,---,0.00,VWS V14.01,2013-09-03 08:16:00,
2013-09-03 03:21:00,77.7,75.8,29.88,NNE,20,0.0,0.0,94,0.00,,---,0.00,VWS V14.01,2013-09-03 08:21:00,
2013-09-03 03:26:00,77.7,75.8,29.87,NNE,20,0.0,0.0,94,0.00,,---,0.00,VWS V14.01,2013-09-03 08:26:00,
2013-09-03 03:31:00,77.6,75.7,29.87,NNE,20,0.0,0.0,94,0.00,,---,0.00,VWS V14.01,2013-09-03 08:31:00,
2013-09-03 03:36:00,77.6,75.7,29.88,NNE,20,0.0,0.0,94,0.00,,---,0.00,VWS V14.01,2013-09-03 08:36:00,
2013-09-03 03:41:00,77.6,75.7,29.87,NNE,20,0.0,0.0,94,0.00,,---,0.00,VWS V14.01,2013-09-03 08:41:00,
2013-09-03 03:46:00,77.7,76.2,29.87,NNE,20,0.0,0.0,95,0.00,,---,0.00,VWS V14.01,2013-09-03 08:46:00,
2013-09-03 03:51:00,77.7,76.2,29.87,NNE,20,0.0,0.0,95,0.00,,---,0.00,VWS V14.01,2013-09-03 08:51:00,
2013-09-03 03:56:00,77.8,76.3,29.88,NNE,20,0.0,0.0,95,0.00,,---,0.00,VWS V14.01,2013-09-03 08:56:00,
2013-09-03 04:01:00,77.8,76.3,29.88,NNE,20,0.0,0.0,95,0.00,,---,0.00,VWS V14.01,2013-09-03 09:01:00,
2013-09-03 04:06:00,77.8,75.9,29.88,NNE,18,0.0,0.0,94,0.00,,---,0.00,VWS V14.01,2013-09-03 09:06:00,
2013-09-03 04:11:00,77.7,75.8,29.88,NNE,19,0.0,0.0,94,0.00,,---,0.00,VWS V14.01,2013-09-03 09:11:00,
2013-09-03 04:16:00,77.7,75.8,29.88,NNE,19,0.0,0.0,94,0.00,,---,0.00,VWS V14.01,2013-09-03 09:16:00,
2013-09-03 04:21:00,77.7,75.8,29.88,NNE,18,0.0,0.0,94,0.00,,---,0.00,VWS V14.01,2013-09-03 09:21:00,
2013-09-03 04:26:00,77.6,75.7,29.88,NNE,19,0.0,0.0,94,0.00,,---,0.00,VWS V14.01,2013-09-03 09:26:00,
2013-09-03 04:31:00,77.6,75.7,29.88,NNE,19,0.0,0.0,94,0.00,,---,0.00,VWS V14.01,2013-09-03 09:31:00,
2013-09-03 04:36:00,77.5,75.6,29.88,NNE,23,0.0,0.0,94,0.00,,---,0.00,VWS V14.01,2013-09-03 09:36:00,
2013-09-03 04:41:00,77.5,75.6,29.88,NNE,13,0.0,0.0,94,0.00,,---,0.00,VWS V14.01,2013-09-03 09:41:00,
2013-09-03 04:46:00,77.5,75.3,29.88,NNE,13,0.0,0.0,93,0.00,,---,0.00,VWS V14.01,2013-09-03 09:46:00,
2013-09-03 04:51:00,77.4,75.2,29.88,North,11,0.0,0.0,93,0.00,,---,0.00,VWS V14.01,2013-09-03 09:51:00,
2013-09-03 04:56:00,77.5,75.3,29.88,North,357,0.0,0.0,93,0.00,,---,0.00,VWS V14.01,2013-09-03 09:56:00,
2013-09-03 05:01:00,77.6,75.4,29.88,North,356,0.0,0.0,93,0.00,,---,0.00,VWS V14.01,2013-09-03 10:01:00,
2013-09-03 05:06:00,77.7,75.5,29.88,North,3,0.0,0.0,93,0.00,,---,0.00,VWS V14.01,2013-09-03 10:06:00,
2013-09-03 05:11:00,77.6,75.4,29.88,NNE,25,0.0,0.0,93,0.00,,---,0.00,VWS V14.01,2013-09-03 10:11:00,
2013-09-03 05:16:00,77.5,75.3,29.88,NNE,25,0.0,0.0,93,0.00,,---,0.00,VWS V14.01,2013-09-03 10:16:00,
2013-09-03 05:21:00,77.5,75.3,29.88,NNE,19,0.0,0.0,93,0.00,,---,0.00,VWS V14.01,2013-09-03 10:21:00,
2013-09-03 05:26:00,77.4,75.2,29.88,NNE,20,0.0,0.0,93,0.00,,---,0.00,VWS V14.01,2013-09-03 10:26:00,
2013-09-03 05:31:00,77.2,75.0,29.89,South,170,0.0,0.0,93,0.00,,---,0.00,VWS V14.01,2013-09-03 10:31:00,
2013-09-03 05:36:00,77.2,75.0,29.89,SE,134,0.0,0.0,93,0.00,,---,0.00,VWS V14.01,2013-09-03 10:36:00,
2013-09-03 05:41:00,77.1,74.9,29.89,SE,129,0.0,0.0,93,0.00,,---,0.00,VWS V14.01,2013-09-03 10:41:00,
2013-09-03 05:46:00,77.0,74.8,29.89,NNW,338,0.0,0.0,93,0.00,,---,0.00,VWS V14.01,2013-09-03 10:46:00,
2013-09-03 05:51:00,76.9,74.7,29.89,NNW,342,0.0,0.0,93,0.00,,---,0.00,VWS V14.01,2013-09-03 10:51:00,
2013-09-03 05:56:00,76.7,74.5,29.89,NNW,342,0.0,0.0,93,0.00,,---,0.00,VWS V14.01,2013-09-03 10:56:00,
2013-09-03 06:01:00,76.6,74.4,29.89,NNW,342,0.0,0.0,93,0.00,,---,0.00,VWS V14.01,2013-09-03 11:01:00,
2013-09-03 06:05:00,76.5,74.3,29.89,NNW,342,0.0,0.0,93,0.00,,---,0.00,VWS V14.01,2013-09-03 11:05:00,
2013-09-03 06:10:00,76.4,74.2,29.89,NNW,342,0.0,0.0,93,0.00,,---,0.00,VWS V14.01,2013-09-03 11:10:00,
2013-09-03 06:15:00,76.4,74.2,29.89,NNW,342,0.0,0.0,93,0.00,,---,0.00,VWS V14.01,2013-09-03 11:15:00,
2013-09-03 06:20:00,76.3,73.8,29.89,NNW,336,0.0,0.0,92,0.00,,---,0.00,VWS V14.01,2013-09-03 11:20:00,
2013-09-03 06:25:00,76.2,73.7,29.89,North,350,0.0,0.0,92,0.00,,---,0.00,VWS V14.01,2013-09-03 11:25:00,
2013-09-03 06:30:00,76.1,73.6,29.90,NE,47,0.0,0.0,92,0.00,,---,0.00,VWS V14.01,2013-09-03 11:30:00,
2013-09-03 06:35:00,76.0,73.2,29.90,NE,47,0.0,0.0,91,0.00,,---,0.00,VWS V14.01,2013-09-03 11:35:00,
2013-09-03 06:40:00,76.0,73.2,29.89,NNE,27,0.0,0.0,91,0.00,,---,0.00,VWS V14.01,2013-09-03 11:40:00,
2013-09-03 06:45:00,75.9,73.1,29.90,NNW,336,0.0,0.0,91,0.00,,---,0.00,VWS V14.01,2013-09-03 11:45:00,
2013-09-03 06:50:00,75.9,72.4,29.90,NNW,329,0.0,0.0,89,0.00,,---,0.00,VWS V14.01,2013-09-03 11:50:00,
2013-09-03 06:55:00,75.9,72.1,29.90,NNW,333,0.0,0.0,88,0.00,,---,0.00,VWS V14.01,2013-09-03 11:55:00,
2013-09-03 07:00:00,75.9,71.8,29.90,NE,42,0.0,0.0,87,0.00,,---,0.00,VWS V14.01,2013-09-03 12:00:00,
2013-09-03 07:05:00,75.8,71.0,29.90,NNW,335,0.0,0.0,85,0.00,,---,0.00,VWS V14.01,2013-09-03 12:05:00,
2013-09-03 07:10:00,75.8,71.0,29.90,North,357,0.0,0.0,85,0.00,,---,0.00,VWS V14.01,2013-09-03 12:10:00,
2013-09-03 07:15:00,75.7,70.9,29.91,East,79,0.0,0.0,85,0.00,,---,0.00,VWS V14.01,2013-09-03 12:15:00,
2013-09-03 07:20:00,75.6,70.8,29.91,North,352,0.0,1.0,85,0.00,,---,0.00,VWS V14.01,2013-09-03 12:20:00,
2013-09-03 07:25:00,75.7,70.9,29.91,ENE,57,0.0,1.0,85,0.00,,---,0.00,VWS V14.01,2013-09-03 12:25:00,
2013-09-03 07:30:00,75.8,71.3,29.91,NE,53,0.0,1.0,86,0.00,,---,0.00,VWS V14.01,2013-09-03 12:30:00,
2013-09-03 07:35:00,76.0,71.9,29.91,NE,46,0.0,0.0,87,0.00,,---,0.00,VWS V14.01,2013-09-03 12:35:00,
2013-09-03 07:40:00,76.1,71.6,29.91,NNE,27,0.0,0.0,86,0.00,,---,0.00,VWS V14.01,2013-09-03 12:40:00,
2013-09-03 07:45:00,76.3,71.8,29.91,NNE,27,0.0,0.0,86,0.00,,---,0.00,VWS V14.01,2013-09-03 12:45:00,
2013-09-03 07:50:00,76.5,72.0,29.91,NNE,27,0.0,0.0,86,0.00,,---,0.00,VWS V14.01,2013-09-03 12:50:00,
2013-09-03 07:55:00,76.8,71.9,29.91,NNW,329,0.0,0.0,85,0.00,,---,0.00,VWS V14.01,2013-09-03 12:55:00,
2013-09-03 08:00:00,77.2,72.3,29.91,NNW,345,0.0,0.0,85,0.00,,---,0.00,VWS V14.01,2013-09-03 13:00:00,
2013-09-03 08:05:00,77.7,72.5,29.91,NE,54,0.0,0.0,84,0.00,,---,0.00,VWS V14.01,2013-09-03 13:05:00,
2013-09-03 08:10:00,78.3,72.7,29.91,ENE,68,0.0,0.0,83,0.00,,---,0.00,VWS V14.01,2013-09-03 13:10:00,
2013-09-03 08:15:00,78.8,72.8,29.91,ESE,110,0.0,0.0,82,0.00,,---,0.00,VWS V14.01,2013-09-03 13:15:00,
2013-09-03 08:20:00,79.6,73.6,29.91,NNE,13,0.0,0.0,82,0.00,,---,0.00,VWS V14.01,2013-09-03 13:20:00,
2013-09-03 08:25:00,80.2,73.8,29.91,East,88,0.0,0.0,81,0.00,,---,0.00,VWS V14.01,2013-09-03 13:25:00,
2013-09-03 08:30:00,80.8,74.4,29.91,ESE,105,0.0,0.0,81,0.00,,---,0.00,VWS V14.01,2013-09-03 13:30:00,
2013-09-03 08:35:00,81.1,74.3,29.91,ESE,113,0.0,0.0,80,0.00,,---,0.00,VWS V14.01,2013-09-03 13:35:00,
2013-09-03 08:40:00,81.0,74.2,29.91,ESE,104,0.0,1.0,80,0.00,,---,0.00,VWS V14.01,2013-09-03 13:40:00,
2013-09-03 08:45:00,81.3,74.2,29.91,SE,132,0.0,1.0,79,0.00,,---,0.00,VWS V14.01,2013-09-03 13:45:00,
2013-09-03 08:50:00,81.7,74.6,29.91,NNW,339,0.0,1.0,79,0.00,,---,0.00,VWS V14.01,2013-09-03 13:50:00,
2013-09-03 08:55:00,82.0,74.8,29.91,NNW,345,0.0,1.0,79,0.00,,---,0.00,VWS V14.01,2013-09-03 13:55:00,
2013-09-03 09:00:00,82.4,74.9,29.92,ENE,69,0.0,1.0,78,0.00,,---,0.00,VWS V14.01,2013-09-03 14:00:00,
2013-09-03 09:05:00,83.0,75.1,29.92,NE,37,0.0,0.0,77,0.00,,---,0.00,VWS V14.01,2013-09-03 14:05:00,
2013-09-03 09:10:00,82.8,74.5,29.92,NE,49,0.0,1.0,76,0.00,,---,0.00,VWS V14.01,2013-09-03 14:10:00,
2013-09-03 09:15:00,83.2,74.8,29.92,NE,47,0.0,1.0,76,0.00,,---,0.00,VWS V14.01,2013-09-03 14:15:00,
2013-09-03 09:20:00,83.5,74.3,29.92,NNE,27,0.0,1.0,74,0.00,,---,0.00,VWS V14.01,2013-09-03 14:20:00,
2013-09-03 09:25:00,83.7,74.1,29.92,NNE,15,0.0,1.0,73,0.00,,---,0.00,VWS V14.01,2013-09-03 14:25:00,
2013-09-03 09:30:00,84.3,75.1,29.93,NE,41,0.0,1.0,74,0.00,,---,0.00,VWS V14.01,2013-09-03 14:30:00,
2013-09-03 09:35:00,83.9,74.7,29.93,ENE,60,0.0,1.0,74,0.00,,---,0.00,VWS V14.01,2013-09-03 14:35:00,
2013-09-03 09:40:00,84.1,74.5,29.93,ENE,64,0.0,1.0,73,0.00,,---,0.00,VWS V14.01,2013-09-03 14:40:00,
2013-09-03 09:45:00,84.1,74.5,29.93,ENE,75,0.0,1.0,73,0.00,,---,0.00,VWS V14.01,2013-09-03 14:45:00,
2013-09-03 09:50:00,84.2,74.6,29.93,NE,48,0.0,1.0,73,0.00,,---,0.00,VWS V14.01,2013-09-03 14:50:00,
2013-09-03 09:55:00,84.8,74.8,29.93,NNE,25,0.0,1.0,72,0.00,,---,0.00,VWS V14.01,2013-09-03 14:55:00,
2013-09-03 10:00:00,85.7,76.1,29.93,NE,43,0.0,1.0,73,0.00,,---,0.00,VWS V14.01,2013-09-03 15:00:00,
2013-09-03 10:05:00,86.7,76.2,29.93,ENE,64,0.0,0.0,71,0.00,,---,0.00,VWS V14.01,2013-09-03 15:05:00,
2013-09-03 10:10:00,87.7,76.3,29.93,ENE,67,0.0,0.0,69,0.00,,---,0.00,VWS V14.01,2013-09-03 15:10:00,
2013-09-03 10:15:00,88.1,76.7,29.93,ENE,75,0.0,0.0,69,0.00,,---,0.00,VWS V14.01,2013-09-03 15:15:00,
2013-09-03 10:20:00,88.6,76.7,29.93,East,80,0.0,1.0,68,0.00,,---,0.00,VWS V14.01,2013-09-03 15:20:00,
2013-09-03 10:25:00,88.6,76.2,29.93,East,97,0.0,1.0,67,0.00,,---,0.00,VWS V14.01,2013-09-03 15:25:00,
2013-09-03 10:30:00,88.0,77.0,29.93,East,79,0.0,1.0,70,0.00,,---,0.00,VWS V14.01,2013-09-03 15:30:00,
2013-09-03 10:35:00,87.9,76.9,29.93,ENE,62,0.0,1.0,70,0.00,,---,0.00,VWS V14.01,2013-09-03 15:35:00,
2013-09-03 10:40:00,88.0,77.0,29.93,ENE,68,0.0,1.0,70,0.00,,---,0.00,VWS V14.01,2013-09-03 15:40:00,
2013-09-03 10:45:00,88.3,76.8,29.93,ENE,64,0.0,1.0,69,0.00,,---,0.00,VWS V14.01,2013-09-03 15:45:00,
2013-09-03 10:50:00,88.7,76.8,29.93,East,85,1.0,1.0,68,0.00,,---,0.00,VWS V14.01,2013-09-03 15:50:00,
2013-09-03 10:55:00,88.4,76.5,29.93,East,79,0.0,1.0,68,0.00,,---,0.00,VWS V14.01,2013-09-03 15:55:00,
2013-09-03 11:00:00,88.8,77.3,29.93,NNE,28,0.0,1.0,69,0.00,,---,0.00,VWS V14.01,2013-09-03 16:00:00,
2013-09-03 11:05:00,89.5,76.2,29.94,ENE,70,0.0,1.0,65,0.00,,---,0.00,VWS V14.01,2013-09-03 16:05:00,
2013-09-03 11:10:00,89.8,76.9,29.93,NE,56,0.0,1.0,66,0.00,,---,0.00,VWS V14.01,2013-09-03 16:10:00,
2013-09-03 11:15:00,90.4,77.5,29.93,ENE,62,0.0,1.0,66,0.00,,---,0.00,VWS V14.01,2013-09-03 16:15:00,
2013-09-03 11:20:00,90.4,77.0,29.93,East,82,0.0,1.0,65,0.00,,---,0.00,VWS V14.01,2013-09-03 16:20:00,
2013-09-03 11:25:00,91.3,77.4,29.93,East,84,0.0,1.0,64,0.00,,---,0.00,VWS V14.01,2013-09-03 16:25:00,
2013-09-03 11:30:00,91.7,76.8,29.93,ENE,65,0.0,1.0,62,0.00,,---,0.00,VWS V14.01,2013-09-03 16:30:00,
2013-09-03 11:35:00,91.7,76.8,29.93,NE,46,0.0,1.0,62,0.00,,---,0.00,VWS V14.01,2013-09-03 16:35:00,
2013-09-03 11:40:00,91.8,76.9,29.93,NE,48,0.0,1.0,62,0.00,,---,0.00,VWS V14.01,2013-09-03 16:40:00,
2013-09-03 11:45:00,91.8,76.4,29.92,ENE,60,0.0,1.0,61,0.00,,---,0.00,VWS V14.01,2013-09-03 16:45:00,
2013-09-03 11:50:00,91.7,75.8,29.92,NE,45,0.0,1.0,60,0.00,,---,0.00,VWS V14.01,2013-09-03 16:50:00,
2013-09-03 11:55:00,91.8,76.4,29.92,ENE,63,0.0,1.0,61,0.00,,---,0.00,VWS V14.01,2013-09-03 16:55:00,
2013-09-03 12:00:00,92.1,76.2,29.92,NE,51,0.0,1.0,60,0.00,,---,0.00,VWS V14.01,2013-09-03 17:00:00,
2013-09-03 12:05:00,92.8,76.4,29.92,ENE,68,0.0,1.0,59,0.00,,---,0.00,VWS V14.01,2013-09-03 17:05:00,
2013-09-03 12:10:00,93.0,76.6,29.92,NE,38,1.0,1.0,59,0.00,,---,0.00,VWS V14.01,2013-09-03 17:10:00,
2013-09-03 12:15:00,93.1,76.7,29.92,ENE,60,0.0,1.0,59,0.00,,---,0.00,VWS V14.01,2013-09-03 17:15:00,
2013-09-03 12:20:00,93.0,76.1,29.92,East,84,0.0,1.0,58,0.00,,---,0.00,VWS V14.01,2013-09-03 17:20:00,
2013-09-03 12:25:00,93.9,76.4,29.92,NE,56,0.0,1.0,57,0.00,,---,0.00,VWS V14.01,2013-09-03 17:25:00,
2013-09-03 12:30:00,94.9,76.8,29.92,ENE,58,0.0,1.0,56,0.00,,---,0.00,VWS V14.01,2013-09-03 17:30:00,
2013-09-03 12:35:00,96.9,76.9,29.92,ENE,68,0.0,0.0,53,0.00,,---,0.00,VWS V14.01,2013-09-03 17:35:00,
2013-09-03 12:40:00,97.8,76.6,29.92,East,84,0.0,1.0,51,0.00,,---,0.00,VWS V14.01,2013-09-03 17:40:00,
2013-09-03 12:45:00,98.1,76.3,29.92,NE,48,0.0,1.0,50,0.00,,---,0.00,VWS V14.01,2013-09-03 17:45:00,
2013-09-03 12:50:00,98.3,76.5,29.91,NE,35,0.0,1.0,50,0.00,,---,0.00,VWS V14.01,2013-09-03 17:50:00,
2013-09-03 12:55:00,98.8,77.5,29.91,ENE,75,0.0,1.0,51,0.00,,---,0.00,VWS V14.01,2013-09-03 17:55:00,
2013-09-03 13:00:00,99.1,76.6,29.91,ENE,74,0.0,1.0,49,0.00,,---,0.00,VWS V14.01,2013-09-03 18:00:00,
2013-09-03 13:05:00,99.2,75.4,29.91,ENE,77,0.0,1.0,47,0.00,,---,0.00,VWS V14.01,2013-09-03 18:05:00,
2013-09-03 13:10:00,98.6,74.9,29.91,ENE,72,0.0,1.0,47,0.00,,---,0.00,VWS V14.01,2013-09-03 18:10:00,
2013-09-03 13:15:00,98.6,73.6,29.91,ENE,77,0.0,1.0,45,0.00,,---,0.00,VWS V14.01,2013-09-03 18:15:00,
2013-09-03 13:20:00,98.5,74.2,29.91,ENE,57,0.0,1.0,46,0.00,,---,0.00,VWS V14.01,2013-09-03 18:20:00,
2013-09-03 13:25:00,99.1,72.0,29.91,ENE,67,0.0,1.0,42,0.00,,---,0.00,VWS V14.01,2013-09-03 18:25:00,
2013-09-03 13:30:00,99.2,74.1,29.90,East,79,0.0,1.0,45,0.00,,---,0.00,VWS V14.01,2013-09-03 18:30:00,
2013-09-03 13:35:00,99.5,74.4,29.90,NE,39,1.0,1.0,45,0.00,,---,0.00,VWS V14.01,2013-09-03 18:35:00,
2013-09-03 13:40:00,99.0,73.3,29.90,ENE,68,0.0,1.0,44,0.00,,---,0.00,VWS V14.01,2013-09-03 18:40:00,
2013-09-03 13:45:00,98.3,72.0,29.90,ENE,68,0.0,1.0,43,0.00,,---,0.00,VWS V14.01,2013-09-03 18:45:00,
2013-09-03 13:50:00,99.5,72.4,29.90,ENE,72,0.0,1.0,42,0.00,,---,0.00,VWS V14.01,2013-09-03 18:50:00,
2013-09-03 13:55:00,100.0,71.4,29.90,ENE,70,0.0,1.0,40,0.00,,---,0.00,VWS V14.01,2013-09-03 18:55:00,
2013-09-03 14:00:00,99.8,70.4,29.90,ESE,106,0.0,1.0,39,0.00,,---,0.00,VWS V14.01,2013-09-03 19:00:00,
2013-09-03 14:05:00,100.5,70.3,29.89,ENE,77,0.0,1.0,38,0.00,,---,0.00,VWS V14.01,2013-09-03 19:05:00,
2013-09-03 14:10:00,101.3,70.2,29.89,East,93,0.0,1.0,37,0.00,,---,0.00,VWS V14.01,2013-09-03 19:10:00,
2013-09-03 14:15:00,101.3,69.4,29.89,East,101,0.0,1.0,36,0.00,,---,0.00,VWS V14.01,2013-09-03 19:15:00,
2013-09-03 14:20:00,101.0,70.7,29.89,East,94,0.0,1.0,38,0.00,,---,0.00,VWS V14.01,2013-09-03 19:20:00,
2013-09-03 14:25:00,101.7,70.6,29.88,NE,34,0.0,1.0,37,0.00,,---,0.00,VWS V14.01,2013-09-03 19:25:00,
2013-09-03 14:30:00,101.2,69.3,29.88,East,79,0.0,1.0,36,0.00,,---,0.00,VWS V14.01,2013-09-03 19:30:00,
2013-09-03 14:35:00,100.9,69.1,29.88,SSE,152,0.0,1.0,36,0.00,,---,0.00,VWS V14.01,2013-09-03 19:35:00,
2013-09-03 14:40:00,99.7,68.8,29.88,ESE,114,0.0,1.0,37,0.00,,---,0.00,VWS V14.01,2013-09-03 19:40:00,
2013-09-03 14:45:00,99.2,69.2,29.87,East,87,0.0,1.0,38,0.00,,---,0.00,VWS V14.01,2013-09-03 19:45:00,
2013-09-03 14:50:00,99.6,69.5,29.87,ESE,104,0.0,1.0,38,0.00,,---,0.00,VWS V14.01,2013-09-03 19:50:00,
2013-09-03 14:55:00,100.4,68.6,29.87,ESE,104,0.0,1.0,36,0.00,,---,0.00,VWS V14.01,2013-09-03 19:55:00,
2013-09-03 15:00:00,100.7,68.9,29.86,ENE,68,0.0,1.0,36,0.00,,---,0.00,VWS V14.01,2013-09-03 20:00:00,
2013-09-03 15:05:00,100.9,69.1,29.86,East,101,0.0,1.0,36,0.00,,---,0.00,VWS V14.01,2013-09-03 20:05:00,
2013-09-03 15:10:00,100.7,68.1,29.86,East,79,0.0,1.0,35,0.00,,---,0.00,VWS V14.01,2013-09-03 20:10:00,
2013-09-03 15:15:00,100.6,70.4,29.86,ENE,70,0.0,1.0,38,0.00,,---,0.00,VWS V14.01,2013-09-03 20:15:00,
2013-09-03 15:20:00,101.9,70.8,29.85,East,101,0.0,1.0,37,0.00,,---,0.00,VWS V14.01,2013-09-03 20:20:00,
2013-09-03 15:25:00,102.6,69.7,29.85,North,11,0.0,1.0,35,0.00,,---,0.00,VWS V14.01,2013-09-03 20:25:00,
2013-09-03 15:30:00,101.5,69.6,29.85,NE,40,0.0,1.0,36,0.00,,---,0.00,VWS V14.01,2013-09-03 20:30:00,
2013-09-03 15:35:00,101.0,69.9,29.84,NE,40,0.0,1.0,37,0.00,,---,0.00,VWS V14.01,2013-09-03 20:35:00,
2013-09-03 15:40:00,100.6,70.4,29.84,NE,35,0.0,1.0,38,0.00,,---,0.00,VWS V14.01,2013-09-03 20:40:00,
2013-09-03 15:45:00,100.3,70.1,29.84,East,93,0.0,1.0,38,0.00,,---,0.00,VWS V14.01,2013-09-03 20:45:00,
2013-09-03 15:50:00,100.8,71.3,29.84,North,349,0.0,1.0,39,0.00,,---,0.00,VWS V14.01,2013-09-03 20:50:00,
2013-09-03 15:55:00,101.0,70.7,29.84,NE,49,0.0,1.0,38,0.00,,---,0.00,VWS V14.01,2013-09-03 20:55:00,
2013-09-03 16:00:00,100.8,70.6,29.83,East,95,0.0,1.0,38,0.00,,---,0.00,VWS V14.01,2013-09-03 21:00:00,
2013-09-03 16:05:00,100.6,70.4,29.83,North,349,0.0,1.0,38,0.00,,---,0.00,VWS V14.01,2013-09-03 21:05:00,
2013-09-03 16:10:00,100.5,69.5,29.83,ENE,57,0.0,1.0,37,0.00,,---,0.00,VWS V14.01,2013-09-03 21:10:00,
2013-09-03 16:15:00,100.5,71.1,29.83,NE,43,0.0,1.0,39,0.00,,---,0.00,VWS V14.01,2013-09-03 21:15:00,
2013-09-03 16:20:00,101.0,72.2,29.83,ENE,65,0.0,1.0,40,0.00,,---,0.00,VWS V14.01,2013-09-03 21:20:00,
2013-09-03 16:25:00,101.3,71.0,29.83,NE,55,0.0,1.0,38,0.00,,---,0.00,VWS V14.01,2013-09-03 21:25:00,
2013-09-03 16:30:00,100.5,71.1,29.83,NE,53,0.0,1.0,39,0.00,,---,0.00,VWS V14.01,2013-09-03 21:30:00,
2013-09-03 16:35:00,99.6,71.0,29.83,NE,56,0.0,0.0,40,0.00,,---,0.00,VWS V14.01,2013-09-03 21:35:00,
2013-09-03 16:40:00,99.2,72.1,29.83,ENE,72,0.0,0.0,42,0.00,,---,0.00,VWS V14.01,2013-09-03 21:40:00,
2013-09-03 16:45:00,99.2,71.4,29.83,East,92,0.0,0.0,41,0.00,,---,0.00,VWS V14.01,2013-09-03 21:45:00,
2013-09-03 16:50:00,100.1,71.4,29.83,East,86,0.0,1.0,40,0.00,,---,0.00,VWS V14.01,2013-09-03 21:50:00,
2013-09-03 16:55:00,100.1,69.9,29.82,ESE,105,0.0,1.0,38,0.00,,---,0.00,VWS V14.01,2013-09-03 21:55:00,
2013-09-03 17:00:00,100.0,71.4,29.82,NE,37,0.0,1.0,40,0.00,,---,0.00,VWS V14.01,2013-09-03 22:00:00,
2013-09-03 17:05:00,100.2,71.5,29.82,ENE,78,0.0,0.0,40,0.00,,---,0.00,VWS V14.01,2013-09-03 22:05:00,
2013-09-03 17:10:00,100.1,72.2,29.82,ENE,68,0.0,1.0,41,0.00,,---,0.00,VWS V14.01,2013-09-03 22:10:00,
2013-09-03 17:15:00,99.2,74.8,29.82,NE,51,0.0,1.0,46,0.00,,---,0.00,VWS V14.01,2013-09-03 22:15:00,
2013-09-03 17:20:00,99.0,71.9,29.82,ENE,63,0.0,1.0,42,0.00,,---,0.00,VWS V14.01,2013-09-03 22:20:00,
2013-09-03 17:25:00,98.5,71.5,29.82,NNE,21,0.0,1.0,42,0.00,,---,0.00,VWS V14.01,2013-09-03 22:25:00,
2013-09-03 17:30:00,98.2,72.6,29.81,NE,37,0.0,1.0,44,0.00,,---,0.00,VWS V14.01,2013-09-03 22:30:00,
2013-09-03 17:35:00,98.2,71.9,29.81,NE,50,0.0,0.0,43,0.00,,---,0.00,VWS V14.01,2013-09-03 22:35:00,
2013-09-03 17:40:00,98.5,72.8,29.81,North,354,0.0,1.0,44,0.00,,---,0.00,VWS V14.01,2013-09-03 22:40:00,
2013-09-03 17:45:00,98.3,70.6,29.81,NE,39,0.0,1.0,41,0.00,,---,0.00,VWS V14.01,2013-09-03 22:45:00,
2013-09-03 17:50:00,98.6,71.6,29.81,NNE,18,0.0,1.0,42,0.00,,---,0.00,VWS V14.01,2013-09-03 22:50:00,
2013-09-03 17:55:00,98.8,71.0,29.82,ENE,63,0.0,1.0,41,0.00,,---,0.00,VWS V14.01,2013-09-03 22:55:00,
2013-09-03 18:00:00,98.4,71.4,29.82,ENE,59,0.0,1.0,42,0.00,,---,0.00,VWS V14.01,2013-09-03 23:00:00,
2013-09-03 18:05:00,97.9,70.9,29.82,ENE,70,0.0,1.0,42,0.00,,---,0.00,VWS V14.01,2013-09-03 23:05:00,
2013-09-03 18:10:00,97.6,72.0,29.82,ENE,66,0.0,1.0,44,0.00,,---,0.00,VWS V14.01,2013-09-03 23:10:00,
2013-09-03 18:15:00,97.3,71.8,29.82,NE,56,0.0,1.0,44,0.00,,---,0.00,VWS V14.01,2013-09-03 23:15:00,
2013-09-03 18:20:00,96.8,72.6,29.82,ESE,104,0.0,1.0,46,0.00,,---,0.00,VWS V14.01,2013-09-03 23:20:00,
2013-09-03 18:25:00,96.2,70.1,29.82,NNE,32,0.0,1.0,43,0.00,,---,0.00,VWS V14.01,2013-09-03 23:25:00,
2013-09-03 18:30:00,95.8,71.1,29.82,East,82,0.0,1.0,45,0.00,,---,0.00,VWS V14.01,2013-09-03 23:30:00,
2013-09-03 18:35:00,95.6,70.9,29.82,NE,56,0.0,1.0,45,0.00,,---,0.00,VWS V14.01,2013-09-03 23:35:00,
2013-09-03 18:40:00,95.4,70.1,29.82,ENE,75,0.0,1.0,44,0.00,,---,0.00,VWS V14.01,2013-09-03 23:40:00,
2013-09-03 18:45:00,95.3,71.3,29.82,ENE,67,0.0,1.0,46,0.00,,---,0.00,VWS V14.01,2013-09-03 23:45:00,
2013-09-03 18:50:00,95.0,70.3,29.82,NE,46,0.0,1.0,45,0.00,,---,0.00,VWS V14.01,2013-09-03 23:50:00,
2013-09-03 18:55:00,94.8,71.4,29.82,NE,46,0.0,1.0,47,0.00,,---,0.00,VWS V14.01,2013-09-03 23:55:00,
2013-09-03 19:00:00,94.3,71.6,29.82,North,1,0.0,1.0,48,0.00,,---,0.00,VWS V14.01,2013-09-04 00:00:00,
2013-09-03 19:05:00,93.8,71.2,29.82,North,1,0.0,0.0,48,0.00,,---,0.00,VWS V14.01,2013-09-04 00:05:00,
2013-09-03 19:10:00,93.4,70.8,29.83,NNE,20,0.0,0.0,48,0.00,,---,0.00,VWS V14.01,2013-09-04 00:10:00,
2013-09-03 19:15:00,92.9,70.9,29.83,NNE,33,0.0,0.0,49,0.00,,---,0.00,VWS V14.01,2013-09-04 00:15:00,
2013-09-03 19:20:00,92.6,71.3,29.83,NNE,32,0.0,0.0,50,0.00,,---,0.00,VWS V14.01,2013-09-04 00:20:00,
2013-09-03 19:25:00,92.2,70.9,29.83,NNE,33,0.0,0.0,50,0.00,,---,0.00,VWS V14.01,2013-09-04 00:25:00,
2013-09-03 19:30:00,91.9,71.2,29.83,NNE,33,0.0,0.0,51,0.00,,---,0.00,VWS V14.01,2013-09-04 00:30:00,
2013-09-03 19:35:00,91.6,70.9,29.83,NNE,33,0.0,0.0,51,0.00,,---,0.00,VWS V14.01,2013-09-04 00:35:00,
2013-09-03 19:40:00,91.5,70.8,29.83,NNE,33,0.0,0.0,51,0.00,,---,0.00,VWS V14.01,2013-09-04 00:40:00,
2013-09-03 19:45:00,91.3,71.8,29.84,NNE,32,0.0,0.0,53,0.00,,---,0.00,VWS V14.01,2013-09-04 00:45:00,
2013-09-03 19:50:00,90.7,71.2,29.84,NNE,33,0.0,0.0,53,0.00,,---,0.00,VWS V14.01,2013-09-04 00:50:00,
2013-09-03 19:55:00,90.1,70.7,29.84,NNE,32,0.0,0.0,53,0.00,,---,0.00,VWS V14.01,2013-09-04 00:55:00,
2013-09-03 20:00:00,89.5,71.2,29.84,NNE,33,0.0,0.0,55,0.00,,---,0.00,VWS V14.01,2013-09-04 01:00:00,
2013-09-03 20:05:00,89.1,70.8,29.84,NNE,33,0.0,0.0,55,0.00,,---,0.00,VWS V14.01,2013-09-04 01:05:00,
2013-09-03 20:10:00,88.9,72.2,29.84,NNE,33,0.0,0.0,58,0.00,,---,0.00,VWS V14.01,2013-09-04 01:10:00,
2013-09-03 20:15:00,88.6,71.4,29.84,NNE,33,0.0,0.0,57,0.00,,---,0.00,VWS V14.01,2013-09-04 01:15:00,
2013-09-03 20:20:00,88.1,71.0,29.84,NNE,33,0.0,0.0,57,0.00,,---,0.00,VWS V14.01,2013-09-04 01:20:00,
2013-09-03 20:25:00,87.8,71.2,29.84,East,79,0.0,0.0,58,0.00,,---,0.00,VWS V14.01,2013-09-04 01:25:00,
2013-09-03 20:30:00,87.7,72.1,29.85,ENE,68,0.0,0.0,60,0.00,,---,0.00,VWS V14.01,2013-09-04 01:30:00,
2013-09-03 20:35:00,88.4,72.8,29.85,East,81,0.0,1.0,60,0.00,,---,0.00,VWS V14.01,2013-09-04 01:35:00,
2013-09-03 20:40:00,89.2,73.0,29.85,East,84,0.0,1.0,59,0.00,,---,0.00,VWS V14.01,2013-09-04 01:40:00,
2013-09-03 20:45:00,89.4,73.2,29.85,ENE,71,0.0,1.0,59,0.00,,---,0.00,VWS V14.01,2013-09-04 01:45:00,
2013-09-03 20:50:00,89.6,73.4,29.86,East,94,0.0,1.0,59,0.00,,---,0.00,VWS V14.01,2013-09-04 01:50:00,
2013-09-03 20:55:00,89.5,72.8,29.86,East,82,0.0,1.0,58,0.00,,---,0.00,VWS V14.01,2013-09-04 01:55:00,
2013-09-03 21:00:00,89.5,72.3,29.86,East,85,0.0,1.0,57,0.00,,---,0.00,VWS V14.01,2013-09-04 02:00:00,
2013-09-03 21:05:00,89.4,72.7,29.86,ENE,77,0.0,1.0,58,0.00,,---,0.00,VWS V14.01,2013-09-04 02:05:00,
2013-09-03 21:10:00,89.3,73.1,29.86,NE,53,0.0,1.0,59,0.00,,---,0.00,VWS V14.01,2013-09-04 02:10:00,
2013-09-03 21:15:00,89.2,73.5,29.87,ENE,63,0.0,1.0,60,0.00,,---,0.00,VWS V14.01,2013-09-04 02:15:00,
2013-09-03 21:20:00,89.0,72.8,29.86,NE,54,0.0,1.0,59,0.00,,---,0.00,VWS V14.01,2013-09-04 02:20:00,
2013-09-03 21:25:00,88.8,72.1,29.87,NE,53,0.0,1.0,58,0.00,,---,0.00,VWS V14.01,2013-09-04 02:25:00,
2013-09-03 21:30:00,88.9,72.7,29.87,ENE,77,0.0,1.0,59,0.00,,---,0.00,VWS V14.01,2013-09-04 02:30:00,
2013-09-03 21:35:00,88.7,72.5,29.87,East,79,0.0,0.0,59,0.00,,---,0.00,VWS V14.01,2013-09-04 02:35:00,
2013-09-03 21:40:00,88.6,72.4,29.87,NE,53,0.0,1.0,59,0.00,,---,0.00,VWS V14.01,2013-09-04 02:40:00,
2013-09-03 21:45:00,88.4,72.3,29.87,NE,44,0.0,1.0,59,0.00,,---,0.00,VWS V14.01,2013-09-04 02:45:00,
2013-09-03 21:50:00,88.3,71.7,29.88,NE,51,0.0,1.0,58,0.00,,---,0.00,VWS V14.01,2013-09-04 02:50:00,
2013-09-03 21:55:00,88.3,72.2,29.87,ENE,59,0.0,1.0,59,0.00,,---,0.00,VWS V14.01,2013-09-04 02:55:00,
2013-09-03 22:00:00,88.3,72.2,29.88,ENE,58,0.0,1.0,59,0.00,,---,0.00,VWS V14.01,2013-09-04 03:00:00,
2013-09-03 22:05:00,88.2,71.6,29.88,ENE,65,0.0,1.0,58,0.00,,---,0.00,VWS V14.01,2013-09-04 03:05:00,
2013-09-03 22:10:00,88.1,71.5,29.88,ENE,72,0.0,1.0,58,0.00,,---,0.00,VWS V14.01,2013-09-04 03:10:00,
2013-09-03 22:15:00,88.0,71.9,29.88,ENE,75,0.0,1.0,59,0.00,,---,0.00,VWS V14.01,2013-09-04 03:15:00,
2013-09-03 22:20:00,87.9,72.3,29.88,ENE,76,0.0,1.0,60,0.00,,---,0.00,VWS V14.01,2013-09-04 03:20:00,
2013-09-03 22:25:00,87.7,72.1,29.88,ENE,75,0.0,1.0,60,0.00,,---,0.00,VWS V14.01,2013-09-04 03:25:00,
2013-09-03 22:30:00,87.6,72.0,29.88,ENE,74,1.0,1.0,60,0.00,,---,0.00,VWS V14.01,2013-09-04 03:30:00,
2013-09-03 22:35:00,87.5,71.9,29.88,East,80,0.0,1.0,60,0.00,,---,0.00,VWS V14.01,2013-09-04 03:35:00,
2013-09-03 22:40:00,87.3,71.7,29.88,ENE,59,0.0,1.0,60,0.00,,---,0.00,VWS V14.01,2013-09-04 03:40:00,
2013-09-03 22:45:00,87.2,72.6,29.88,ENE,75,0.0,1.0,62,0.00,,---,0.00,VWS V14.01,2013-09-04 03:45:00,
2013-09-03 22:50:00,86.9,72.3,29.89,ENE,68,0.0,1.0,62,0.00,,---,0.00,VWS V14.01,2013-09-04 03:50:00,
2013-09-03 22:55:00,86.7,73.1,29.89,East,92,0.0,1.0,64,0.00,,---,0.00,VWS V14.01,2013-09-04 03:55:00,
2013-09-03 23:00:00,86.5,72.9,29.89,East,81,0.0,1.0,64,0.00,,---,0.00,VWS V14.01,2013-09-04 04:00:00,
2013-09-03 23:01:00,86.5,72.9,29.89,East,79,0.0,1.0,64,0.00,,---,0.00,VWS V14.01,2013-09-04 04:01:00,
2013-09-03 23:06:00,86.2,72.6,29.89,NNW,333,0.0,1.0,64,0.00,,---,0.00,VWS V14.01,2013-09-04 04:06:00,
2013-09-03 23:11:00,85.9,72.8,29.89,ENE,74,0.0,1.0,65,0.00,,---,0.00,VWS V14.01,2013-09-04 04:11:00,
2013-09-03 23:16:00,85.7,72.6,29.89,ENE,77,0.0,1.0,65,0.00,,---,0.00,VWS V14.01,2013-09-04 04:16:00,
2013-09-03 23:21:00,85.6,72.9,29.90,ENE,77,0.0,1.0,66,0.00,,---,0.00,VWS V14.01,2013-09-04 04:21:00,
2013-09-03 23:26:00,85.4,72.8,29.90,ENE,73,0.0,1.0,66,0.00,,---,0.00,VWS V14.01,2013-09-04 04:26:00,
2013-09-03 23:31:00,85.4,73.2,29.90,ENE,60,0.0,0.0,67,0.00,,---,0.00,VWS V14.01,2013-09-04 04:31:00,
2013-09-03 23:36:00,85.2,72.1,29.90,East,89,0.0,1.0,65,0.00,,---,0.00,VWS V14.01,2013-09-04 04:36:00,
2013-09-03 23:41:00,85.2,72.1,29.90,ENE,72,0.0,1.0,65,0.00,,---,0.00,VWS V14.01,2013-09-04 04:41:00,
2013-09-03 23:46:00,85.1,72.5,29.90,NE,56,0.0,1.0,66,0.00,,---,0.00,VWS V14.01,2013-09-04 04:46:00,
2013-09-03 23:51:00,85.0,72.4,29.90,ENE,73,0.0,1.0,66,0.00,,---,0.00,VWS V14.01,2013-09-04 04:51:00,
2013-09-03 23:56:00,85.0,72.8,29.90,ENE,77,0.0,1.0,67,0.00,,---,0.00,VWS V14.01,2013-09-04 04:56:00,